Regional Weather Roundup
Issued by NWS

Home | Current Version | Previous Version | Text Only | Print | Product List | Glossary On
Versions: 1 2 3 4 5 6 7 8 9 10 11 12 13 14 15 16 17 18 19 20 21 22 23 24 25 26 27 28 29 30 31 32 33 34 35 36 37 38 39 40 41 42 43 44 45 46 47 48 49 50
000
ASUS43 KDMX 271107
RWRIA

WEATHER ROUNDUP FOR IOWA
NATIONAL WEATHER SERVICE DES MOINES IA
600 AM CDT WED MAY 27 2015

NOTE: "FAIR" INDICATES FEW OR NO CLOUDS BELOW 12,000 FEET WITH NO
SIGNIFICANT WEATHER AND/OR OBSTRUCTIONS TO VISIBILITY.

* - THESE STATIONS ARE NOT NWS STATIONS...THUS NOT UNDER NWS
QUALITY CONTROL.  THEY ALSO DO NOT REPORT WEATHER SUCH
AS PRECIPITATION OR FOG.

IAZ001>003-012>014-020>022-031>034-043>046-271200-
   NORTHWEST IOWA

CITY           SKY/WX    TMP DP  RH WIND       PRES   REMARKS
CARROLL *      CLEAR     55  54  94 W8        29.99R
CHEROKEE *     FOG       48  48 100 CALM      29.98R VSB 1/4
DENISON *      CLEAR     52  52 100 CALM      29.98R FOG
LE MARS *      CLEAR     50  50 100 CALM      29.99R
ORANGE CITY *  CLEAR     52  48  87 W3        29.98R
SHELDON *      CLEAR     52  50  93 W7        29.96R
SIOUX CITY     CLEAR     52  49  89 NW3       29.99R
SPENCER        CLEAR     52  50  93 SW5       29.96R FOG
STORM LAKE *   CLEAR     54  52  94 W8        29.98R
$$

IAZ055>058-069>071-079>083-090>094-271200-
   SOUTHWEST IOWA

CITY           SKY/WX    TMP DP  RH WIND       PRES   REMARKS
ATLANTIC *     CLEAR     54  54 100 SW3       30.00R
AUDUBON *      CLEAR     55  52  88 W9        30.01R
COUNCIL BLFS * CLEAR     54  54 100 SW6       30.01R
CRESTON *      CLEAR     54  54 100 SW7       30.01R FOG
HARLAN  *      CLEAR     55  55 100 S5        30.03R
LAMONI         CLEAR     58  54  86 W7        29.99R
RED OAK *      CLEAR     54  52  94 CALM      30.01R
SHENANDOAH *   CLEAR     54  54 100 SW5       30.03R
$$

IAZ047>049-059>061-072>074-084-271200-
   CENTRAL IOWA

CITY           SKY/WX    TMP DP  RH WIND       PRES   REMARKS
AMES           PTCLDY    56  54  93 W5        29.96R
ANKENY *       CLEAR     57  57 100 NW5       29.96R
CHARITON *     PTCLDY    57  55  94 NW6       29.98R
DES MOINES     MOCLDY    57  54  89 SW5       29.97R
GRINNELL*      MOCLDY    57  55  94 W5        29.97R
KNOXVILLE *    CLEAR     57  55  94 W7        29.97R
MARSHALLTOWN   PTCLDY    58  56  93 W7        29.94R
PELLA *        CLEAR     59  59 100 W7        29.98R FOG
PERRY *          N/A     55  54  94 W8        29.98R
$$

IAZ004>006-015-016-023>025-035-036-271200-
   NORTH CENTRAL IOWA

CITY           SKY/WX    TMP DP  RH WIND       PRES   REMARKS
ALGONA *       CLEAR     55  55 100 W9        29.96R FOG
CLARION *      CLEAR     55 N/A N/A W8        29.96R
ESTHERVILLE    PTCLDY    52  51  97 SW7       29.94R FOG
FORT DODGE *   PTCLDY    55  52  88 CALM      29.97R
MASON CITY     MOCLDY    55  53  93 W7        29.95R
FOREST CITY *  CLEAR     52  52 100 W3        29.94R
IOWA FALLS *     N/A     57  55  94 W5        29.96R
$$

IAZ007>011-017>019-026>030-037>042-050>054-066-271200-
   NORTHEAST IOWA

CITY           SKY/WX    TMP DP  RH WIND       PRES   REMARKS
CEDAR RAPIDS   PTCLDY    57  57 100 W6        29.93R
CHARLES CITY * CLOUDY    57  57 100 W8        29.93R FOG
CLINTON *      CLOUDY    61  57  88 W13       29.94R
DECORAH *      CLOUDY    57  57 100 CALM      29.89R
DUBUQUE        CLOUDY    59  57  93 W8        29.91R
MONTICELLO *   CLOUDY    61  61 100 W6        29.92R
OELWEIN *      CLOUDY    57  57 100 W8        29.93R
WATERLOO       CLOUDY    58  56  93 W6        29.92R
$$

IAZ064-065-067-068-078-271200-
   EAST CENTRAL IOWA

CITY           SKY/WX    TMP DP  RH WIND       PRES   REMARKS
DAVENPORT      CLOUDY    62  58  86 W12       29.94R
IOWA CITY      CLOUDY    60  59  96 W5        29.95R
MT. PLEASANT * CLEAR     59  59 100 W5        29.96R
MUSCATINE *    PTCLDY    61  57  88 W7        29.95R
QUAD CITIES    CLEAR     61  58  90 SW8       29.93R
$$

IAZ062-063-075>077-085>089-095>099-271200-
   SOUTHEAST IOWA

CITY           SKY/WX    TMP DP  RH WIND       PRES   REMARKS
BURLINGTON     CLEAR     61  59  93 SW5       29.96R
FAIRFIELD *    MOCLDY    59  57  94 SW5       29.96R
FORT MADISON * CLEAR     63  61  94 SW5       29.98R
KEOKUK *       PTCLDY    63  61  94 S5        29.97R
OSKALOOSA *    CLOUDY    57  55  94 W8        29.97R
CENTERVILLE *  CLEAR     57  57 100 W8        30.00R
OTTUMWA        CLOUDY    58  57  97 W7        29.97R
WASHINGTON *   CLOUDY    61  59  94 W8        29.97R
$$

ABBREVIATIONS USED IN REMARKS
   TC - TEMPERATURES IN CELSIUS
  WCI - WIND CHILL INDEX
   HX - HEAT INDEX
  VSB - VISIBILITY
$$



USA.gov is the U.S. government's official web portal to all federal, state and local government web resources and services.